Orlando Sanford International Airport Orlando US
ICAO: KSFB
IATA: SFB
Category: Large
Scheduled Services: Yes

Elevation: 55 ft
TransAlt. 18000 ft.

Airport Communications:
APP/DEP:119.775
ATIS:125.975
CLNC DEL:121.35
CTAF:120.3
GND:121.35
SANFORD TWR:120.3

KSFB Zoom In..

If you have problems with the map follow the link
https://www.worldairports.se/pages/airport.php?
ICAO=KSFB

Runways:

(A) RW 09C length 3578 ft width 75 ft
---- / hdg 95

(B) RW 09L length 11000 ft width 150 ft
ILS 108.90 / hdg 95

(C) RW 09R length 6647 ft width 75 ft
ILS 111.55 / hdg 95

(D) RW 18 length 6002 ft width 150 ft
---- / hdg 185

(E) RW 27C length 3578 ft width 75 ft
---- / hdg 275

(F) RW 27L length 6647 ft width 75 ft
---- / hdg 275

(G) RW 27R length 11000 ft width 150 ft
ILS 110.15 / hdg 275

(H) RW 36 length 6002 ft width 150 ft
---- / hdg 5

Location; KSFB
Day. 12 / Time. 06.53 Zulu
* Altimeter: 30.27
* Temperature: 20° c. 68°f.
* Wind from: 020° Speed 08 kn.
Dewpoint: 17° c.
Visibility: 10 Statute Miles.
Clouds: Broken 1800 ft.
Clouds: Overcast 2400 ft.

KSFB 120653Z AUTO 02008KT 10SM BKN018 OVC024 20/17 A3027 RMK AO2 SLP249 T02000172


Wind From 020°
Speed 08 kn.

 
 
jpsmedia worldairports.se 2019   terms of use